Fort Knox, KY

1:09 AM EST on December 06, 2019 (GMT -0500)
Godman Army Air Field

Weather History for KFTK - October, 2019

Change the Weather History Date:

Wednesday, October 30, 2019

  Actual Average Record
Temperature  
Mean Temperature 56 °F -  
Max Temperature 58 °F 61 °F 84 °F (2004)
Min Temperature 53 °F 42 °F 28 °F (2017)
Degree Days  
Heating Degree Days 9    
Growing Degree Days 6 (Base 50)    
Moisture  
Dew Point 56 °F    
Average Humidity 99    
Maximum Humidity 100    
Minimum Humidity 88    
Precipitation  
Precipitation 0.91 in - - ()
Sea Level Pressure  
Sea Level Pressure 29.95 in    
Wind  
Wind Speed 5 mph (NE)    
Max Wind Speed 9 mph    
Max Gust Speed -    
Visibility 4 miles    
Events Fog , Rain    
Averages and records for this station are not official NWS values.
T = Trace of Precipitation, MM = Missing Value Source: NWS Daily Summary

Daily Weather History Graph

Daily Weather History Graph

Search for Another Location

Airport or City:

Astronomy

Oct. 30, 2019 Rise Set
Actual Time 8:07 AM EDT 6:47 PM EDT
Civil Twilight 7:39 AM EDT 7:14 PM EDT
Nautical Twilight 7:09 AM EDT 7:45 PM EDT
Astronomical Twilight 6:38 AM EDT 8:16 PM EDT
Moon 10:47 AM EDT (10/30) 8:57 PM EDT (10/30)
Length of Visible Light 11h 34m
Length of Day
10h 40m
Waxing Crescent, 8% of the Moon is Illuminated
Oct 30
Waxing Crescent
Nov 4
First Quarter
Nov 12
Full
Nov 19
Last Quarter
Nov 26
New

Hourly Weather History & Observations

Time (EDT) Temp. Dew Point Humidity Pressure Visibility Wind Dir Wind Speed Gust Speed Precip Events Conditions
6:26 AM 55.4 °F 51.8 °F 88% 30.11 in 10.0 mi NE 4.6 mph - N/A   Overcast
6:41 AM 55.4 °F 51.8 °F 88% 30.10 in 10.0 mi NE 3.5 mph - N/A   Overcast
6:56 AM 55.0 °F 52.2 °F 90% 30.10 in 10.0 mi ENE 5.8 mph - N/A   Overcast
7:23 AM 55.4 °F 51.8 °F 88% 30.08 in 10.0 mi NE 6.9 mph - N/A   Light Drizzle
7:56 AM 54.3 °F 54.0 °F 99% 30.09 in 10.0 mi ENE 5.8 mph - 0.03 in Rain Light Rain
8:20 AM 53.6 °F 53.6 °F 100% 30.08 in 3.0 mi East 9.2 mph - N/A Rain Light Rain
8:56 AM 53.8 °F 53.8 °F 100% 30.07 in 1.5 mi ENE 8.1 mph - 0.09 in Rain Light Rain
9:12 AM 53.6 °F 53.6 °F 100% 30.07 in 1.5 mi ENE 4.6 mph - N/A Rain Light Rain
9:44 AM 53.6 °F 53.6 °F 100% 30.08 in 1.5 mi East 6.9 mph - N/A Rain Light Rain
9:56 AM 54.1 °F 54.1 °F 100% 30.07 in 1.5 mi East 6.9 mph - 0.01 in   Light Drizzle
10:59 AM 55.2 °F 55.2 °F 100% 30.04 in 2.0 mi East 4.6 mph - N/A   Overcast
11:37 AM 55.4 °F 55.4 °F 100% 30.02 in 1.5 mi East 6.9 mph - N/A Rain Light Rain
11:56 AM 56.3 °F 56.3 °F 100% 30.01 in 1.5 mi ENE 5.8 mph - 0.00 in   Light Drizzle
12:30 PM 57.2 °F 57.2 °F 100% 30.01 in 1.0 mi ENE 3.5 mph - N/A Rain Light Rain
12:56 PM 57.2 °F 57.2 °F 100% 29.99 in 1.2 mi NE 5.8 mph - 0.01 in Rain Light Rain
1:44 PM 57.2 °F 57.2 °F 100% 29.96 in 1.0 mi North 6.9 mph - N/A Rain Light Rain
1:58 PM 57.4 °F 57.4 °F 100% 29.95 in 0.8 mi NW 6.9 mph - 0.10 in Rain Heavy Rain
2:56 PM 56.5 °F 56.5 °F 100% 29.94 in 1.5 mi North 6.9 mph - 0.52 in Rain Rain
3:24 PM 57.2 °F 57.2 °F 100% 29.93 in 2.0 mi North 8.1 mph - N/A Rain Rain
3:45 PM 57.2 °F 57.2 °F 100% 29.92 in 3.0 mi ENE 5.8 mph - N/A Rain Light Rain
3:57 PM 56.7 °F 56.7 °F 100% 29.92 in 5.0 mi NE 4.6 mph - 0.11 in Rain Light Rain
4:04 PM 57.2 °F 57.2 °F 100% 29.91 in 10.0 mi ENE 4.6 mph - N/A Rain Light Rain
4:34 PM 57.2 °F 57.2 °F 100% 29.91 in 10.0 mi East 6.9 mph - N/A Rain Light Rain
4:56 PM 57.7 °F 57.7 °F 100% 29.91 in 10.0 mi ESE 5.8 mph - 0.02 in   Overcast
4:57 PM 57.7 °F 57.7 °F 100% 29.91 in 10.0 mi ESE 5.8 mph - 0.01 in   Overcast
5:05 PM 57.2 °F 57.2 °F 100% 29.90 in 10.0 mi East 6.9 mph - N/A   Light Drizzle
5:35 PM 59.0 °F 59.0 °F 100% 29.89 in 10.0 mi East 8.1 mph - N/A Rain Light Rain
5:39 PM 59.0 °F 59.0 °F 100% 29.87 in 10.0 mi East 9.2 mph - N/A Rain Light Rain
5:56 PM 58.5 °F 58.5 °F 100% 29.86 in 10.0 mi ENE 5.8 mph - 0.02 in   Light Drizzle
5:57 PM 59.0 °F 59.0 °F 100% 29.86 in 10.0 mi ENE 4.6 mph - N/A   Overcast
6:12 PM 59.0 °F 59.0 °F 100% 29.87 in 10.0 mi WNW 5.8 mph - N/A   Overcast
6:18 PM 59.0 °F 59.0 °F 100% 29.89 in 10.0 mi West 8.1 mph - N/A   Overcast
6:47 PM 57.2 °F 57.2 °F 100% 29.90 in 2.0 mi NW 5.8 mph - N/A   Overcast
6:48 PM 57.2 °F 57.2 °F 100% 29.90 in 2.0 mi NW 6.9 mph - N/A   Overcast
6:53 PM 57.2 °F 57.2 °F 100% 29.89 in 2.8 mi Calm Calm - N/A Rain Light Rain
6:56 PM 57.6 °F 57.6 °F 100% 29.89 in 4.0 mi NNW 3.5 mph - 0.00 in Rain Light Rain
7:01 PM 57.2 °F 57.2 °F 100% 29.89 in 5.0 mi NW 5.8 mph - N/A   Overcast
7:27 PM 57.2 °F 57.2 °F 100% 29.91 in 7.0 mi WNW 4.6 mph - N/A   Overcast
7:56 PM 57.6 °F 57.6 °F 100% 29.90 in 1.1 mi NW 3.5 mph - 0.00 in   Overcast
8:01 PM 57.2 °F 57.2 °F 100% 29.90 in 0.8 mi NNW 3.5 mph - N/A   Mist
8:16 PM 57.2 °F 57.2 °F 100% 29.90 in 0.5 mi Calm Calm - N/A Fog Fog
8:46 PM 57.2 °F 57.2 °F 100% 29.89 in 0.4 mi Calm Calm - N/A Fog Fog
8:56 PM 57.6 °F 57.6 °F 100% 29.89 in 0.4 mi Calm Calm - N/A Fog Fog
9:56 PM 57.6 °F 57.6 °F 100% 29.90 in 0.4 mi SW 3.5 mph - N/A Fog Fog
10:11 PM 57.2 °F 57.2 °F 100% 29.90 in 0.8 mi West 5.8 mph - N/A   Mist
10:26 PM 57.2 °F 57.2 °F 100% 29.89 in 0.6 mi Calm Calm - N/A   Mist
10:41 PM 57.2 °F 57.2 °F 100% 29.88 in 0.8 mi WNW 3.5 mph - N/A   Mist
10:56 PM 57.0 °F 57.0 °F 100% 29.88 in 1.4 mi Calm Calm - N/A   Overcast
11:08 PM 57.2 °F 57.2 °F 100% 29.90 in 5.0 mi West 4.6 mph - N/A   Overcast
11:56 PM 56.8 °F 56.8 °F 100% 29.89 in 2.5 mi West 5.8 mph - N/A   Overcast